Change the Weather History Date:

Monday, February 20, 2012

  Actual Average Record
Temperature  
Mean Temperature 34 °F 31 °F  
Max Temperature 43 °F 39 °F 67 °F (1930)
Min Temperature 24 °F 22 °F -7 °F (1936)
Degree Days  
Heating Degree Days 31 34  
Month to date heating degree days 623 722  
Since 1 July heating degree days 3533 4201  
Cooling Degree Days 0 0  
Month to date cooling degree days 0 0  
Year to date cooling degree days 0 0  
Moisture  
Dew Point 16 °F    
Average Humidity 53    
Maximum Humidity 75    
Minimum Humidity 30    
Precipitation  
Precipitation 0.00 in 0.08 in 1.19 in (1981)
Month to date precipitation 0.86 1.66  
Year to date precipitation 3.85 4.36  
Snow  
Snow 0.00 in 0.30 in 13.00 in (1921)
Month to date snowfall 3.6 6.3  
Since 1 July snowfall 11.7 25.5  
Snow Depth 0.00 in    
Sea Level Pressure  
Sea Level Pressure 30.25 in    
Wind  
Wind Speed 6 mph (NNW)    
Max Wind Speed 15 mph    
Max Gust Speed 21 mph    
Visibility 10 miles    
Events      
T = Trace of Precipitation, MM = Missing Value Source: NWS Daily Summary

Daily Weather History Graph

Daily Weather History Graph

Search for Another Location

Airport or City:

Trip Planner

Search our weather history database for the weather conditions in past years. The results will help you decide how hot, cold, wet, or windy it might be!

Date:

Astronomy

Feb. 20, 2012 Rise Set
Actual Time 6:56 AM EST 5:47 PM EST
Civil Twilight 6:28 AM EST 6:15 PM EST
Nautical Twilight 5:56 AM EST 6:47 PM EST
Astronomical Twilight 5:24 AM EST 7:19 PM EST
Moon 5:52 AM EST (2/20) 4:49 PM EST (2/20)
Length of Visible Light 11h 47m
Length of Day
10h 50m
Waning Crescent, 2% of the Moon is Illuminated
Feb 20
Waning Crescent
Feb 21
New
Feb 29
First Quarter
Mar 8
Full
Mar 14
Last Quarter

Hourly Weather History & Observations

Time (EST) Temp. Windchill Dew Point Humidity Pressure Visibility Wind Dir Wind Speed Gust Speed Precip Events Conditions
12:54 AM 30.9 °F 23.5 °F 18.0 °F 59% 30.08 in 10.0 mi NNW 8.1 mph - N/A   Overcast
1:54 AM 30.9 °F 25.2 °F 18.0 °F 59% 30.09 in 10.0 mi NNW 5.8 mph - N/A   Overcast
2:54 AM 30.9 °F 22.8 °F 18.0 °F 59% 30.10 in 10.0 mi NNW 9.2 mph - N/A   Overcast
3:54 AM 30.0 °F 21.1 °F 17.1 °F 59% 30.12 in 10.0 mi North 10.4 mph - N/A   Overcast
4:54 AM 28.9 °F 21.9 °F 17.1 °F 61% 30.15 in 10.0 mi Variable 6.9 mph - N/A   Overcast
5:54 AM 28.0 °F 20.0 °F 14.0 °F 56% 30.18 in 10.0 mi North 8.1 mph - N/A   Scattered Clouds
6:54 AM 27.0 °F 19.5 °F 14.0 °F 58% 30.19 in 10.0 mi WNW 6.9 mph - N/A   Clear
7:54 AM 27.0 °F 21.6 °F 14.0 °F 58% 30.23 in 10.0 mi WNW 4.6 mph - N/A   Scattered Clouds
8:54 AM 30.9 °F 22.8 °F 16.0 °F 54% 30.25 in 10.0 mi NNW 9.2 mph - N/A   Mostly Cloudy
9:54 AM 32.0 °F 24.2 °F 15.1 °F 50% 30.27 in 10.0 mi North 9.2 mph - N/A   Clear
10:54 AM 35.1 °F 29.3 °F 16.0 °F 46% 30.30 in 10.0 mi North 6.9 mph 18.4 mph N/A   Partly Cloudy
11:54 AM 36.0 °F 31.1 °F 16.0 °F 44% 30.30 in 10.0 mi Variable 5.8 mph - N/A   Clear
12:54 PM 39.9 °F 34.5 °F 17.1 °F 40% 30.29 in 10.0 mi NNW 8.1 mph - N/A   Clear
1:54 PM 41.0 °F 37.1 °F 16.0 °F 36% 30.29 in 10.0 mi Variable 5.8 mph - N/A   Clear
2:54 PM 42.8 °F 36.6 °F 15.8 °F 34% 30.27 in 10.0 mi NNW 11.5 mph - N/A   Clear
3:54 PM 43.0 °F 38.2 °F 15.1 °F 32% 30.28 in 10.0 mi NNW 8.1 mph - N/A   Clear
4:54 PM 42.1 °F 37.1 °F 14.0 °F 32% 30.28 in 10.0 mi NW 8.1 mph - N/A   Clear
5:54 PM 37.9 °F 34.4 °F 12.9 °F 36% 30.30 in 10.0 mi NW 4.6 mph - N/A   Clear
6:54 PM 33.1 °F - 21.0 °F 61% 30.32 in 10.0 mi Calm Calm - N/A   Clear
7:54 PM 30.9 °F - 18.0 °F 59% 30.33 in 10.0 mi Calm Calm - N/A   Clear
8:54 PM 30.0 °F - 18.0 °F 61% 30.33 in 10.0 mi Calm Calm - N/A   Clear
9:54 PM 26.6 °F - 19.4 °F 74% 30.32 in 10.0 mi Calm Calm - N/A   Clear
10:54 PM 25.0 °F - 17.1 °F 72% 30.35 in 10.0 mi Calm Calm - N/A   Clear
11:54 PM 25.0 °F - 18.0 °F 75% 30.36 in 10.0 mi Calm Calm - N/A   Clear